Theta_e
344 343 344 345 346 346 345 343 341 339 340 342 341 339 337 337 337 338 338 339 339 338 337 337 338 338 339 341 342 342 341 341 341 341 341 341 341 342 342 343 345 346 346 345 344 344 344 344 345 345 345 344 344 344 345 344 344 344 345 344 343 343 343 342 342 342 342 343 343 342 342 341 342 342 341 342 341 341 341 341 341 341 341 341 341
345 343 344 345 346 346 346 344 342 340 340 342 342 340 338 337 337 337 338 338 338 338 338 339 339 339 339 340 341 341 340 340 340 339 339 339 340 341 342 342 344 346 347 346 345 344 344 344 344 345 345 344 344 344 344 344 344 344 345 345 344 343 343 342 342 342 343 344 344 344 343 342 342 341 341 342 341 341 341 341 341 341 342 342 341
344 344 344 345 345 346 346 345 342 341 340 341 342 342 340 338 338 338 338 338 337 337 338 339 340 340 341 341 340 339 339 339 339 338 338 339 341 341 341 341 343 346 347 348 347 345 343 344 344 344 344 344 344 343 344 344 344 344 345 345 344 344 344 342 343 343 344 344 344 345 343 342 343 341 341 341 341 341 341 341 341 341 343 342 341
344 344 344 344 345 346 346 345 343 342 341 341 342 342 342 341 340 340 339 340 339 337 337 339 340 341 341 340 338 338 338 338 338 338 338 339 340 341 341 341 342 345 347 348 348 346 344 343 344 344 345 344 343 343 344 344 344 344 345 345 344 345 344 343 343 343 343 344 345 345 344 344 346 344 341 341 341 342 341 341 341 342 343 342 341
344 344 343 344 345 346 346 346 345 343 341 341 341 342 342 342 342 342 341 341 341 340 338 340 341 341 340 339 338 339 340 340 339 338 338 339 340 340 340 340 341 343 346 346 346 346 344 343 344 345 344 344 343 343 344 344 344 344 345 345 345 345 343 342 343 343 343 344 344 345 346 347 348 345 343 342 342 343 343 341 340 342 343 341 341
343 342 342 343 345 345 346 346 345 344 342 340 340 341 342 342 343 344 343 342 343 342 341 341 342 341 340 339 339 340 342 343 342 341 341 341 342 342 340 339 340 342 344 344 345 346 344 344 344 344 344 343 343 343 343 343 343 344 345 345 345 345 343 342 343 344 344 344 344 345 346 347 346 346 346 345 343 343 343 343 343 343 343 343 343
342 342 341 342 344 345 346 346 346 345 343 341 340 341 342 342 342 343 344 343 343 344 343 342 343 342 341 341 342 342 343 345 345 345 345 345 344 343 341 339 339 341 342 342 343 345 345 344 345 344 343 343 343 343 343 344 344 344 345 345 345 345 344 342 344 344 344 345 346 346 345 345 345 346 347 348 347 346 345 344 345 345 345 345 345
342 342 341 342 344 345 345 345 345 345 345 343 342 342 342 343 342 342 342 343 344 345 344 343 343 342 342 343 343 344 345 345 346 346 346 346 345 344 341 340 339 340 341 342 342 344 345 344 345 344 343 343 343 344 345 346 345 345 345 345 346 346 345 344 344 345 345 346 346 346 346 345 344 344 345 346 348 349 347 346 346 345 346 347 346
341 341 341 342 343 344 344 344 345 345 345 345 344 344 343 342 342 341 341 342 343 344 344 344 344 344 344 344 344 344 345 346 346 346 346 346 346 345 343 340 340 340 340 341 342 343 344 344 344 344 344 344 343 344 345 346 347 347 346 346 347 347 346 346 345 346 347 348 347 346 346 345 345 346 345 346 347 347 347 347 347 346 347 347 346
341 340 340 341 343 343 343 344 345 345 345 345 346 345 344 342 342 341 340 340 342 343 343 344 344 344 344 343 343 344 345 346 346 347 347 347 347 346 344 341 340 340 340 341 341 342 343 343 344 345 344 344 343 344 345 346 346 347 347 347 347 347 347 346 346 346 346 347 347 347 347 346 347 347 347 347 346 346 347 348 348 347 348 347 346
340 340 340 341 342 343 343 344 345 345 345 345 346 346 345 343 342 341 340 340 342 344 343 343 343 344 344 344 344 345 346 346 346 346 347 347 347 346 345 342 341 340 340 341 341 342 343 343 344 345 344 344 343 344 345 346 346 347 347 347 347 345 345 345 345 347 347 346 347 347 348 347 347 348 348 347 346 347 348 348 348 347 347 349 347
340 341 341 341 342 343 344 344 345 346 345 345 347 347 346 345 344 343 342 342 343 344 344 343 343 343 344 345 345 346 347 347 347 346 347 347 347 346 344 342 341 341 341 342 342 343 344 344 343 343 344 344 344 343 344 345 346 348 348 348 347 345 343 342 343 346 347 347 349 349 348 348 347 347 347 347 346 347 347 348 349 348 349 350 349
340 341 341 342 342 342 344 344 345 346 345 345 346 347 346 345 346 345 344 342 342 343 344 344 344 344 344 345 345 347 348 348 348 347 348 348 348 347 345 343 342 341 340 341 343 344 345 346 344 343 343 343 343 344 344 345 346 348 348 348 347 345 343 342 342 344 345 345 347 348 348 348 347 347 347 347 347 347 347 349 349 349 350 351 350
340 341 340 341 341 342 343 343 344 345 345 345 346 346 347 346 346 346 345 343 342 341 342 343 344 344 344 344 345 347 347 348 348 348 348 348 348 348 347 345 344 343 341 341 343 345 346 347 345 343 343 343 343 343 344 345 346 347 347 347 347 345 343 343 343 343 344 343 343 344 347 349 347 346 347 347 348 348 348 349 349 350 352 352 351
339 340 341 341 341 341 342 342 343 344 344 345 345 345 346 346 346 346 345 344 343 342 341 341 342 343 343 344 344 346 347 347 348 348 348 348 348 348 348 347 346 346 345 344 345 347 347 347 345 344 344 343 343 343 344 345 346 347 348 348 348 347 345 345 344 344 344 343 343 342 345 349 348 347 348 348 348 348 349 349 349 351 353 354 353
338 340 340 340 341 341 341 341 342 343 344 344 345 345 346 345 345 345 345 345 345 344 344 343 341 341 342 343 343 345 347 347 348 348 347 347 347 348 348 348 347 348 348 348 347 347 347 347 345 344 344 343 343 343 343 344 346 348 348 348 348 347 347 348 347 346 345 345 345 343 343 347 348 347 349 349 348 348 349 350 349 351 353 354 354
338 339 339 340 341 341 341 341 341 343 343 343 344 344 344 345 344 344 344 344 345 345 345 344 343 341 341 342 343 345 347 347 347 347 347 347 347 348 348 348 348 348 349 349 348 348 347 347 346 345 344 344 344 343 343 344 345 346 347 346 346 346 346 348 348 347 346 345 345 345 344 345 346 347 349 349 349 350 350 351 351 351 351 353 354
338 338 339 339 340 341 340 340 340 341 341 342 343 343 343 344 344 344 344 344 344 344 344 344 343 342 341 341 343 345 346 346 346 347 346 347 347 347 348 348 348 349 349 349 348 348 347 347 346 346 345 344 344 344 344 344 344 344 345 344 344 344 344 345 346 346 345 344 344 345 345 346 346 347 349 350 350 351 351 351 352 352 351 352 353
338 338 338 339 339 340 339 339 340 340 341 341 341 342 343 344 344 344 345 344 344 345 344 343 343 343 341 341 343 345 346 345 345 346 346 345 346 346 347 348 348 348 348 348 348 347 346 347 347 348 347 346 346 346 346 345 344 343 343 343 343 343 342 343 344 344 344 343 343 345 346 346 346 347 349 351 351 351 352 351 351 351 350 351 352
339 338 338 338 339 339 339 339 339 339 340 340 341 342 342 343 343 344 345 345 346 346 345 342 341 341 341 341 342 343 345 344 344 345 345 344 344 345 347 348 348 348 347 347 347 346 345 346 347 348 349 349 348 348 348 347 345 343 343 343 343 343 343 343 343 344 344 344 344 344 345 345 345 346 348 351 352 351 351 350 350 350 349 349 350
341 340 339 339 339 339 338 339 339 339 340 340 341 341 341 342 342 343 344 345 346 346 346 343 342 340 340 340 341 342 344 343 343 344 344 344 344 345 347 347 348 347 345 345 346 345 344 345 346 348 349 350 349 349 350 349 346 344 344 344 343 343 343 343 343 344 344 345 345 344 344 345 344 344 346 349 351 351 350 350 350 348 347 347 348
343 341 340 339 339 339 339 339 339 339 340 340 341 341 341 342 342 342 343 344 346 346 346 345 342 340 339 339 340 341 342 342 342 342 343 343 345 346 347 347 346 345 344 345 345 345 345 346 348 349 350 349 349 349 349 348 347 347 347 346 344 343 343 343 343 343 344 345 346 346 346 346 345 344 344 347 350 351 351 351 351 348 346 348 349
346 343 341 340 340 340 339 339 339 340 340 340 340 340 340 341 341 342 342 342 345 346 346 345 342 340 339 339 339 340 341 341 341 341 341 342 345 346 346 346 345 344 344 345 346 346 347 348 349 350 350 349 349 348 348 347 346 347 348 348 348 347 346 345 345 344 344 345 346 347 347 347 347 346 345 346 347 348 348 349 349 348 347 349 352
346 345 344 342 340 340 339 339 339 339 339 340 340 340 340 340 341 342 341 342 344 346 346 345 342 341 342 341 340 339 339 340 341 341 341 342 344 345 345 345 345 344 344 345 346 347 348 349 349 350 349 349 349 349 349 348 347 347 348 350 350 350 349 349 349 348 347 348 348 347 348 348 349 349 348 347 346 346 347 347 348 348 348 350 352
346 346 345 343 342 341 339 339 339 339 339 339 339 339 339 340 340 341 341 341 343 346 347 346 345 345 345 345 342 339 339 339 339 340 341 342 343 343 344 344 344 344 345 346 347 348 349 349 350 350 350 350 350 350 351 350 349 349 350 351 351 351 351 351 351 350 349 349 349 349 349 349 350 350 350 349 349 349 350 350 350 350 350 350 352
346 346 345 343 342 341 340 340 339 339 339 339 339 339 339 340 340 340 341 341 342 345 347 347 347 347 347 347 346 342 339 338 339 339 341 342 342 343 343 343 343 344 345 347 348 349 350 350 350 350 350 350 351 351 351 351 350 351 351 351 351 351 351 351 351 350 349 349 349 350 350 350 350 350 349 349 349 349 350 350 350 350 350 349 350
346 346 346 345 343 342 341 341 340 340 339 339 339 339 339 339 340 340 341 341 341 344 346 347 347 348 348 348 349 346 342 339 338 339 339 341 341 342 343 343 343 343 345 347 349 350 350 350 350 350 350 350 351 351 351 351 351 351 351 351 351 351 351 351 350 350 350 349 349 349 350 351 351 350 350 349 350 350 349 349 348 349 350 349 349
347 346 346 346 345 343 342 341 341 340 340 340 340 340 339 340 340 339 341 341 341 342 345 346 347 347 348 348 348 349 346 341 338 338 339 339 340 341 343 343 343 343 345 347 349 350 350 350 350 350 350 350 350 350 350 350 350 351 350 350 350 350 350 350 349 349 349 349 348 348 349 349 350 350 351 351 350 350 349 349 349 349 350 349 349
348 347 347 346 346 345 344 342 341 340 340 341 341 342 342 342 341 340 340 341 341 341 343 345 346 347 347 347 347 348 347 342 339 339 338 338 338 340 342 343 343 343 344 346 348 349 350 350 350 350 350 351 350 350 350 350 349 350 350 350 350 349 349 349 349 348 348 348 348 348 348 348 348 349 350 351 350 350 350 349 349 350 350 350 349
349 348 348 348 347 347 346 345 343 342 340 340 341 342 343 343 343 343 342 342 342 342 342 344 346 347 347 347 347 348 346 342 339 339 339 338 338 340 341 342 343 343 344 346 348 349 349 350 350 350 350 350 349 349 349 348 349 349 349 349 349 349 349 349 349 348 347 347 348 348 349 348 348 348 348 349 350 350 349 349 350 349 349 349 349
349 349 349 349 349 348 347 346 346 344 342 341 340 341 342 344 344 345 345 344 343 343 342 343 345 347 348 348 348 348 347 344 341 341 341 339 338 339 340 342 344 345 346 347 349 350 350 350 350 350 350 349 348 348 348 347 347 347 347 347 347 347 347 348 348 348 348 348 348 349 349 349 349 349 349 349 349 349 348 348 349 350 349 350 350
348 349 350 350 350 349 349 348 347 346 344 343 341 341 342 343 344 345 346 345 345 345 345 345 346 347 349 350 350 351 350 348 345 344 343 341 341 342 345 347 348 348 349 349 350 351 350 350 350 350 350 349 349 348 348 347 346 346 346 346 346 346 346 346 346 346 347 347 348 348 348 348 348 349 350 351 351 351 349 348 348 348 347 347 348
349 349 349 350 350 349 349 349 348 347 346 344 343 343 342 343 344 344 345 345 347 347 348 349 348 347 347 347 349 351 352 351 349 349 349 347 345 346 348 350 351 350 349 349 350 350 350 350 350 350 350 350 349 349 348 348 348 347 346 346 345 345 345 345 345 345 345 346 346 347 346 346 347 348 350 351 350 349 348 348 348 347 346 345 345
349 349 349 349 350 349 349 349 348 348 347 347 346 345 345 344 344 344 344 345 346 346 346 347 348 348 348 347 347 349 350 350 349 349 351 352 349 348 350 351 351 351 350 347 346 348 349 349 349 350 349 349 349 349 349 349 348 348 347 347 346 345 345 345 345 345 345 346 347 347 346 345 345 346 348 348 348 346 346 347 348 348 346 345 345
348 348 348 348 349 349 349 349 348 348 348 348 348 347 347 346 346 346 345 345 345 346 345 344 345 347 349 349 348 348 348 350 349 346 349 352 351 351 351 351 350 351 350 348 347 349 349 348 347 347 347 348 348 348 349 348 348 347 347 347 347 346 346 345 345 345 345 346 347 347 347 346 345 345 345 345 346 345 346 346 346 347 347 347 347
348 348 348 348 348 348 348 348 348 348 348 348 348 348 348 348 348 347 347 346 346 347 346 344 344 346 346 348 348 345 346 350 351 348 348 349 350 350 350 349 348 349 350 349 349 350 349 347 347 347 347 348 348 348 348 348 348 348 348 348 348 347 347 346 345 345 345 345 346 346 347 347 346 346 346 345 345 344 344 345 345 346 347 348 348
347 347 348 348 347 348 348 347 347 347 348 348 348 348 348 349 348 348 348 348 348 348 348 347 347 347 347 347 346 345 346 349 349 349 349 349 349 350 350 348 348 348 349 348 348 348 348 348 348 349 349 349 349 349 349 349 350 349 349 348 348 348 348 348 348 347 346 346 346 346 346 346 346 347 346 346 346 346 344 344 346 347 348 348 349
345 346 347 347 347 347 346 347 347 347 347 347 347 347 347 348 348 347 348 348 348 348 349 349 349 350 349 348 347 346 348 349 348 348 348 348 349 350 349 349 349 349 349 349 348 349 349 349 349 349 349 349 349 349 349 349 349 348 347 347 346 347 347 348 348 348 348 347 347 346 346 346 346 346 346 346 347 347 345 345 345 345 347 349 350
344 344 345 345 344 344 346 347 347 347 347 346 346 346 346 347 346 346 346 346 346 346 346 347 349 350 349 349 348 349 349 349 348 348 349 348 348 348 348 348 348 348 348 348 348 348 348 348 348 348 348 347 347 347 347 347 347 347 347 347 347 347 347 348 348 348 348 348 347 347 347 346 346 346 346 346 346 346 346 346 344 342 345 349 351
342 342 343 343 342 343 345 346 346 345 345 345 344 345 345 345 345 345 345 344 345 345 345 347 348 348 348 348 348 348 347 346 346 346 346 346 346 346 346 346 345 345 345 346 345 345 345 345 346 346 345 345 345 345 345 345 344 344 344 345 344 345 345 345 345 345 345 345 345 345 345 345 345 345 346 346 346 346 346 346 346 345 345 348 350
340 340 341 342 341 340 341 342 342 343 343 342 343 343 343 343 343 343 343 342 343 344 344 345 346 346 346 345 345 344 344 343 343 343 343 344 344 344 344 344 344 344 344 343 343 343 343 344 344 343 343 343 342 341 340 339 339 339 339 339 340 340 340 340 341 341 341 341 342 342 343 343 343 343 344 344 345 346 346 346 346 348 348 348 350
336 337 339 339 339 338 337 338 339 340 341 342 342 342 341 341 341 340 339 339 340 340 340 341 341 341 340 340 341 341 341 341 341 342 342 341 341 341 341 341 341 342 342 341 340 340 339 339 338 338 337 337 336 335 334 334 334 334 335 335 336 336 336 336 337 338 339 340 340 341 342 342 342 342 342 342 343 344 345 345 345 347 349 349 349
329 331 333 334 334 334 335 336 336 337 338 339 340 340 339 339 338 336 335 336 336 336 336 336 337 337 337 337 337 337 336 334 333 333 334 337 338 338 339 339 339 339 339 338 337 337 336 335 334 334 333 332 332 331 330 330 330 330 330 331 331 331 330 327 326 329 335 339 340 340 341 341 341 342 342 342 342 342 342 343 344 345 347 348 347
320 323 324 325 326 328 329 330 332 333 334 335 336 336 336 335 334 332 332 334 334 333 334 334 333 332 332 333 332 332 330 328 326 325 327 330 334 336 337 338 337 337 337 337 336 336 334 333 332 332 331 331 330 329 328 326 324 323 323 322 323 324 324 320 315 315 323 333 338 338 338 340 340 341 341 341 341 341 341 340 340 341 343 343 344
314 315 316 316 317 319 320 321 322 322 323 325 326 326 326 326 327 328 329 329 328 327 326 325 323 321 321 322 322 322 321 320 320 320 320 322 326 330 333 334 335 334 334 334 334 334 334 334 333 332 332 331 330 330 328 326 324 323 321 320 319 318 318 318 314 308 311 322 331 332 332 334 334 334 334 334 336 339 340 340 340 339 338 337 337
312 312 312 312 313 314 314 315 316 316 315 315 315 315 317 318 320 321 322 320 318 317 317 317 316 317 317 316 317 317 317 316 317 317 317 316 319 322 326 328 329 331 332 332 332 333 333 332 331 330 329 328 327 326 326 326 325 324 322 320 317 315 313 314 316 312 309 312 318 321 322 324 325 326 326 326 327 329 331 334 334 331 327 326 326
310 310 310 310 311 311 312 313 313 312 312 313 313 314 315 316 316 316 316 316 315 316 316 316 316 316 315 315 315 314 314 314 313 313 314 314 315 317 318 319 320 323 326 328 329 330 329 329 328 325 321 319 319 320 319 319 318 316 314 311 309 308 308 309 312 314 313 309 309 312 314 316 320 322 323 324 325 325 322 320 320 319 318 318 318
309 308 308 308 308 309 309 309 309 309 310 312 314 315 315 316 315 315 315 316 317 317 318 317 317 317 316 315 315 313 312 311 310 310 310 311 311 312 312 312 312 313 315 317 319 320 321 322 323 320 316 314 314 313 311 310 308 307 306 306 305 304 305 306 307 311 312 310 307 307 309 316 323 324 321 323 328 330 327 322 321 323 322 320 318
308 308 307 307 306 307 307 308 310 311 312 312 313 315 316 317 317 317 316 317 318 318 319 319 318 318 317 316 315 313 312 311 310 310 310 310 310 310 310 309 309 309 310 311 312 312 312 312 312 311 310 309 309 308 307 306 306 306 305 305 304 304 304 305 305 306 308 308 306 305 310 322 328 325 321 324 329 332 332 330 330 331 328 324 324
310 311 311 310 310 309 310 310 311 312 312 311 311 312 314 315 316 316 316 316 317 317 317 317 316 316 316 315 315 314 313 312 312 311 311 311 311 311 310 310 309 309 310 311 312 312 311 310 310 309 309 308 308 308 309 308 307 307 305 304 304 304 304 304 304 305 305 306 305 305 313 325 329 325 323 325 325 326 329 330 331 333 332 331 331
314 314 314 315 315 315 315 315 315 315 315 314 314 314 314 315 315 315 315 316 316 316 316 316 315 314 314 314 314 314 314 313 313 312 311 311 311 311 311 311 311 310 311 312 312 313 312 312 312 311 311 311 311 311 310 309 308 306 305 304 304 304 304 305 305 305 305 305 307 311 319 328 329 326 325 324 321 322 325 327 329 331 331 331 332
Wind_Speed
16 15 13 12 12 13 14 15 16 17 17 16 16 17 17 19 19 20 19 19 19 18 18 18 17 16 15 15 13 11 11 11 11 11 10 9 8 7 6 6 5 5 5 4 4 4 4 5 4 3 3 3 4 3 2 2 1 2 4 4 4 5 4 3 3 5 5 5 4 3 2 2 2 3 4 5 5 5 4 4 5 5 5 4 5
17 17 14 13 13 14 16 16 17 18 18 17 17 17 18 19 19 19 19 19 18 18 17 16 15 15 14 13 12 11 10 10 10 10 10 9 7 6 5 5 4 4 4 4 3 3 3 3 3 2 2 2 3 3 3 3 2 2 3 4 4 5 5 3 3 5 4 4 4 4 3 1 1 3 4 4 5 4 2 3 4 4 4 4 5
18 17 16 15 15 16 17 17 17 18 18 18 18 17 18 19 19 19 18 18 18 17 16 15 13 13 12 11 10 10 10 10 9 9 9 7 6 5 4 4 4 4 3 3 2 2 1 2 2 2 2 2 3 3 4 3 3 3 3 4 5 5 5 3 3 4 4 4 5 5 5 4 3 4 4 4 5 4 2 1 2 3 4 5 6
19 18 18 17 17 18 18 18 17 18 19 20 19 19 19 19 19 19 19 18 18 17 16 14 13 13 12 12 11 10 10 9 9 8 7 6 5 4 3 3 4 4 4 3 2 2 2 2 2 3 2 2 3 4 4 4 3 3 3 4 5 5 5 4 4 5 5 5 5 5 6 5 4 5 5 4 4 4 3 2 3 4 5 6 7
20 19 20 19 19 19 19 18 18 19 20 20 21 21 20 20 19 19 19 18 18 17 17 15 14 14 14 13 13 12 10 9 8 8 6 5 4 3 3 3 4 5 5 4 3 3 3 3 3 3 3 2 3 4 4 4 4 4 4 5 5 5 5 5 5 5 5 5 5 5 5 4 4 6 5 3 4 4 3 3 4 5 6 8 9
24 22 21 21 21 20 19 19 19 20 21 20 21 20 20 20 19 19 19 18 18 17 17 16 15 15 15 14 14 12 11 10 9 7 5 4 3 2 3 3 4 5 6 5 4 4 4 3 3 3 3 3 3 4 4 4 4 5 5 5 5 5 6 5 4 5 5 5 5 5 4 3 5 6 5 4 4 4 4 4 5 6 7 8 9
25 24 24 23 23 22 21 19 19 21 21 20 20 20 19 19 19 19 19 19 18 18 18 17 16 15 15 14 13 12 11 9 8 6 4 3 3 3 3 4 5 5 5 5 4 4 4 3 3 3 3 3 4 4 4 4 4 5 5 5 6 6 6 5 4 4 4 4 5 4 4 4 4 5 4 4 5 5 5 4 4 6 7 6 7
27 26 26 27 26 24 22 20 18 19 21 22 21 20 19 19 19 19 19 19 19 19 19 18 17 16 15 14 13 11 10 8 7 5 5 4 4 4 4 4 5 5 5 5 5 5 4 4 3 3 4 4 4 4 4 4 4 5 5 6 6 6 6 5 4 4 3 4 4 4 4 4 4 4 5 5 5 6 6 4 5 7 6 5 7
29 28 28 29 28 25 22 20 18 18 20 22 21 20 19 19 19 19 19 20 19 19 19 19 18 17 16 14 13 11 9 8 7 6 5 5 5 5 5 5 5 5 5 5 5 5 4 4 4 4 4 4 4 5 5 5 5 5 6 6 6 7 6 6 5 4 3 4 4 4 5 5 5 6 6 6 7 7 6 6 8 9 7 6 7
31 29 29 30 29 25 23 21 20 18 19 21 21 20 19 20 20 20 20 20 19 19 19 20 19 18 17 16 14 12 10 9 8 7 6 6 5 6 6 6 6 6 6 6 6 5 5 5 5 5 5 5 5 5 5 5 5 6 6 7 7 7 7 7 7 6 5 4 5 5 5 6 6 6 6 6 7 8 7 8 8 9 8 8 8
32 31 31 31 29 27 25 24 22 20 19 21 22 20 20 20 20 20 20 20 19 19 19 20 20 19 18 16 14 12 10 9 9 8 7 6 6 7 7 7 6 7 7 7 7 6 6 6 5 6 6 6 6 6 6 6 6 6 7 7 8 8 8 8 8 7 7 6 6 6 6 6 6 6 6 7 8 7 7 8 7 8 8 7 8
33 33 33 32 32 30 29 27 25 23 21 21 22 21 21 20 20 20 20 20 20 19 19 19 20 19 18 17 15 13 12 10 10 9 8 7 6 7 7 8 7 7 8 8 8 7 7 6 6 7 6 6 6 7 7 7 7 7 7 7 8 8 8 8 8 8 8 7 7 7 6 7 7 7 7 9 8 7 7 6 6 7 7 6 8
33 35 35 34 34 33 31 30 28 26 23 21 22 22 22 21 20 20 20 19 20 20 19 19 19 19 19 18 17 15 13 12 10 10 10 9 7 7 8 8 8 8 9 8 8 8 8 7 7 8 7 7 7 7 7 7 8 8 7 7 8 8 8 8 8 7 7 8 8 8 7 7 8 8 8 9 8 8 7 6 6 7 6 6 7
34 36 37 36 36 33 32 31 29 27 25 23 22 22 22 22 21 20 20 19 19 19 19 19 18 18 18 19 18 17 15 13 12 11 11 10 9 8 8 9 9 8 8 8 8 8 8 8 8 8 8 8 7 8 8 8 8 9 9 8 8 8 8 8 8 7 7 7 8 8 7 8 9 9 9 9 8 8 7 6 7 7 6 6 6
35 36 37 37 36 33 32 31 29 27 26 24 24 23 22 22 22 21 21 20 19 19 18 18 18 18 18 18 18 17 16 15 14 13 12 11 10 9 9 9 9 9 8 7 7 8 8 9 9 9 9 8 8 8 9 9 9 9 10 9 9 9 9 9 9 8 8 8 8 8 8 7 9 9 9 9 9 8 7 7 8 7 6 6 6
36 37 37 37 36 34 33 31 30 28 27 26 24 23 23 23 23 22 21 21 20 19 18 17 17 18 18 18 18 17 16 15 15 13 12 11 10 9 9 9 9 9 8 7 7 8 9 9 10 9 9 9 9 9 9 9 9 10 10 11 10 10 10 10 9 9 9 9 9 9 9 8 9 9 8 8 8 8 8 7 7 7 7 7 7
36 37 38 38 37 36 34 31 31 30 28 26 24 23 22 22 23 22 22 21 21 20 18 17 17 17 18 18 18 17 16 15 14 12 12 11 10 9 9 9 9 9 8 8 8 8 9 10 10 10 9 9 9 9 9 10 10 11 11 11 11 11 11 11 10 10 9 9 9 10 10 10 10 10 9 9 9 8 8 7 7 7 7 8 8
37 37 37 37 37 36 35 33 31 30 28 25 23 22 21 21 22 22 22 22 21 20 19 18 17 17 18 18 17 16 15 15 13 12 11 12 11 10 10 10 10 10 9 9 9 9 10 10 10 9 9 9 9 9 10 11 11 11 11 11 10 11 11 11 11 11 11 11 10 10 10 11 11 11 10 9 9 9 9 8 8 8 8 9 9
36 37 37 37 38 37 35 33 32 30 29 26 23 22 22 22 22 22 22 22 21 20 19 18 18 18 18 18 17 17 16 15 14 12 12 13 12 11 11 11 11 11 11 11 10 11 11 10 9 9 9 9 9 10 10 11 11 11 10 10 10 10 10 11 11 11 11 11 10 10 11 11 11 12 11 11 10 11 11 11 11 10 10 10 10
36 37 37 38 37 37 36 34 33 31 29 28 26 24 23 22 22 22 22 22 21 21 20 19 19 19 19 18 17 17 16 16 15 15 14 13 12 12 12 12 12 12 12 11 11 11 11 10 9 9 9 9 10 10 10 10 10 10 9 9 10 10 10 10 10 10 10 11 11 11 11 11 12 12 12 12 12 13 13 13 13 12 11 11 11
36 37 38 37 37 36 36 35 34 32 30 30 28 26 25 24 23 22 22 22 22 22 21 20 20 20 19 18 18 17 17 17 16 16 16 14 13 13 12 13 13 12 12 12 11 10 10 10 10 10 10 10 10 10 10 10 10 10 9 9 10 10 10 10 10 10 10 10 11 11 11 11 12 12 12 13 13 13 14 14 13 13 11 10 11
35 37 38 37 37 36 36 35 35 34 33 32 31 29 28 26 24 23 22 22 23 23 22 21 21 21 20 19 18 17 17 17 17 17 17 16 14 13 12 13 13 13 12 11 11 10 9 9 9 10 10 10 10 10 10 10 10 10 9 9 10 10 10 10 11 11 10 11 11 11 11 12 12 12 12 13 13 13 14 13 13 13 11 10 10
33 35 37 38 37 36 36 35 35 35 35 34 33 32 30 28 26 25 23 22 22 22 22 21 22 21 20 19 19 18 18 17 17 17 17 17 16 14 13 12 12 12 11 11 11 10 10 9 9 9 10 10 10 10 10 10 10 10 10 9 9 9 9 9 10 10 10 11 12 12 12 12 12 13 13 13 14 14 14 14 14 13 11 11 11
33 34 35 36 36 36 36 36 36 36 35 35 35 33 32 30 29 27 25 22 21 21 21 22 22 21 20 20 20 19 19 19 18 18 17 17 17 16 14 13 12 12 12 11 11 11 11 11 10 9 9 9 9 9 9 10 10 10 9 9 8 9 9 9 9 10 10 11 12 13 13 12 13 13 13 13 13 14 14 14 14 13 12 12 13
31 33 35 35 35 36 36 36 36 36 35 35 35 34 33 32 31 29 26 24 22 21 21 22 23 22 21 20 20 20 21 20 19 19 18 17 17 17 16 14 13 13 13 12 12 12 12 12 11 10 9 8 8 8 9 9 10 9 9 8 9 9 9 10 10 11 11 12 13 13 13 13 14 14 13 13 13 14 14 14 14 14 13 14 14
28 30 32 34 35 35 36 36 36 35 35 35 35 35 35 34 32 30 28 26 23 22 22 23 23 23 22 21 20 20 21 21 20 20 19 18 17 17 16 16 15 14 13 13 13 13 13 13 12 10 10 9 9 9 9 9 9 10 9 9 9 10 10 10 11 11 12 13 13 14 13 13 14 14 14 14 14 14 15 16 16 15 15 15 15
23 25 27 29 32 33 35 36 36 35 35 35 35 35 35 35 34 32 30 28 25 24 23 23 24 23 23 21 20 20 21 21 20 20 19 18 17 17 17 16 16 15 14 14 13 13 13 13 13 12 11 10 10 10 10 10 10 10 10 10 10 11 11 11 12 12 13 14 14 15 15 14 14 14 14 14 14 15 16 17 16 16 15 15 16
17 20 23 25 27 30 32 34 35 35 35 36 36 36 36 35 34 33 33 31 28 26 25 25 24 24 23 21 21 20 20 20 20 19 19 19 18 17 16 16 16 16 16 15 14 14 13 14 14 14 12 12 12 12 12 11 11 11 12 12 12 12 13 13 13 13 13 14 14 15 16 16 16 15 14 13 14 15 16 17 17 16 16 15 16
12 15 18 21 23 26 28 30 32 34 35 36 37 37 37 37 36 35 34 33 31 30 28 27 26 25 23 21 20 20 20 20 20 19 20 19 18 17 17 16 16 16 16 16 15 14 14 14 14 14 13 13 13 13 13 13 13 14 14 14 14 14 15 15 15 14 14 14 15 15 16 16 16 16 15 15 14 15 16 16 15 15 15 15 15
9 11 13 16 18 20 23 26 28 30 32 34 36 37 38 38 38 37 36 34 33 32 31 30 28 27 24 22 20 20 19 20 21 20 20 20 19 18 17 17 16 16 16 16 15 15 14 14 14 14 14 14 14 14 14 14 15 16 16 16 16 16 17 17 17 16 16 16 16 16 17 17 17 18 18 17 16 15 16 16 16 15 15 15 15
7 9 11 12 14 17 19 21 24 26 29 32 34 35 36 36 36 36 35 34 33 32 33 33 31 29 27 26 24 21 20 20 21 20 20 20 20 19 18 17 16 16 16 17 17 16 16 15 15 14 14 14 14 14 15 15 16 17 18 19 19 18 19 19 19 19 18 18 18 18 18 19 19 18 18 19 18 16 15 16 16 16 15 16 16
5 6 8 9 12 14 16 18 21 23 25 28 30 31 33 33 33 33 32 33 33 32 32 33 32 31 29 28 25 23 22 20 20 20 19 19 19 18 18 17 17 17 18 18 18 18 17 16 16 16 16 16 16 16 15 16 17 17 18 20 20 20 20 21 21 21 20 20 20 20 20 20 20 19 19 19 19 17 15 15 15 16 16 16 17
4 4 4 6 7 9 12 14 16 18 20 22 24 25 27 28 29 29 30 31 31 31 31 31 31 31 30 28 27 24 22 20 20 19 19 18 19 20 20 19 18 18 19 19 19 18 19 18 18 18 18 19 19 19 19 19 20 20 20 20 20 21 21 22 23 23 23 23 22 22 22 21 21 20 20 21 22 19 17 16 17 18 18 18 18
4 4 3 2 3 4 7 8 9 11 14 16 18 20 22 24 26 28 29 29 29 29 30 30 30 30 29 27 28 26 22 20 21 20 18 19 21 21 21 20 18 18 18 17 16 17 19 19 19 19 20 21 22 22 22 22 23 23 23 23 23 23 23 23 24 24 24 25 24 24 24 24 23 23 23 23 23 23 21 20 20 20 20 20 20
5 6 6 5 3 1 3 5 6 7 9 11 13 16 18 20 22 24 26 28 28 29 30 30 31 30 26 23 25 26 23 21 22 21 18 17 17 17 18 19 17 16 16 16 15 16 18 19 19 19 20 22 23 23 23 24 24 24 24 24 25 25 25 26 26 25 25 26 26 26 26 26 26 25 23 22 23 24 25 25 24 24 23 22 21
6 5 6 7 6 4 3 3 4 6 8 9 9 11 13 15 18 21 23 26 28 29 30 31 32 31 27 23 23 24 23 21 19 19 17 15 14 14 16 17 16 16 15 15 14 16 17 18 18 18 20 21 22 23 23 24 24 24 24 24 24 24 25 26 27 27 27 28 28 28 28 28 29 28 27 26 27 28 27 28 29 28 27 26 24
6 5 6 6 5 3 3 4 5 6 8 9 9 10 10 12 14 18 21 25 28 28 29 30 30 31 29 25 24 23 22 20 16 15 15 14 13 13 14 15 16 15 14 13 13 15 17 18 19 19 20 21 23 24 25 25 25 25 25 25 25 26 26 27 28 28 28 29 28 29 30 30 31 32 32 32 31 30 29 29 29 29 29 30 29
6 5 5 5 4 3 3 5 5 4 3 5 8 7 7 8 10 13 18 23 26 27 28 29 28 27 26 24 22 20 17 15 13 12 13 14 14 12 11 12 13 14 14 14 14 16 17 18 20 20 21 22 23 24 25 26 26 26 26 26 27 27 27 28 29 30 30 30 31 31 32 33 34 34 35 35 34 32 31 31 31 31 32 32 31
9 7 7 6 5 4 5 7 7 6 5 2 3 5 6 7 8 11 13 16 17 18 20 21 21 20 19 16 14 13 13 13 13 12 12 13 12 10 9 9 11 13 14 14 14 15 16 18 19 19 20 20 21 22 23 24 24 25 25 25 26 27 27 28 29 31 31 31 32 33 34 35 36 36 38 38 38 36 35 34 34 34 33 31 28
11 11 10 9 9 8 9 10 11 10 8 6 3 4 5 6 9 10 9 9 10 11 13 14 14 14 13 12 11 10 10 10 8 7 7 8 8 8 7 7 8 10 11 12 14 15 16 18 18 17 16 16 16 17 18 18 18 18 18 18 19 20 21 22 24 25 26 27 27 28 29 29 30 31 32 35 36 37 37 37 37 35 34 31 28
12 11 10 9 12 14 16 17 17 16 14 10 8 10 11 11 12 12 12 13 13 12 11 12 13 14 14 14 13 11 9 8 8 7 8 7 5 4 4 4 5 7 8 9 9 9 10 10 10 9 8 8 8 8 8 8 8 8 9 9 9 10 11 12 14 15 17 18 19 19 19 19 19 21 24 28 30 31 32 35 37 35 33 32 29
15 14 12 13 16 19 21 21 20 19 17 13 12 16 18 18 17 18 18 17 15 15 15 15 15 16 16 16 15 12 10 9 8 7 8 8 7 7 6 5 4 3 3 3 2 2 2 2 1 1 1 1 2 2 3 4 5 5 5 6 5 6 7 8 9 10 11 12 12 12 12 14 15 17 19 21 25 27 28 31 34 33 31 30 27
18 17 16 17 20 22 22 21 19 18 17 15 15 18 20 19 20 20 19 17 16 17 19 19 19 19 19 18 17 16 14 14 14 12 11 10 11 10 9 9 8 7 6 5 5 4 5 5 5 4 4 4 4 5 5 5 6 7 7 7 7 7 7 8 9 9 9 8 8 9 11 12 13 14 15 18 18 20 24 26 28 28 27 24 22
20 20 20 20 23 24 24 22 20 18 18 16 16 19 21 21 21 20 18 18 18 19 20 21 21 21 19 17 16 15 15 15 15 15 13 13 12 11 10 10 9 8 7 6 5 6 6 6 6 6 6 6 6 7 7 7 7 8 8 9 9 9 9 8 9 9 8 7 7 8 9 11 12 13 15 17 16 13 15 18 20 22 21 19 19
22 22 23 24 25 26 25 24 22 20 20 19 19 21 23 24 22 20 19 20 19 20 21 22 22 21 20 18 17 17 16 16 15 14 13 12 12 11 10 9 8 7 7 6 5 5 5 4 4 5 5 6 7 7 8 8 8 8 9 9 10 11 11 10 10 10 9 8 7 8 9 10 11 13 14 14 13 11 9 11 13 14 11 9 10
23 22 23 23 24 25 25 25 23 21 21 21 22 24 24 23 22 21 21 21 21 22 23 23 22 22 20 19 19 18 17 16 15 13 13 12 11 10 9 9 8 7 6 6 5 4 3 1 2 3 5 6 7 8 8 9 10 10 11 11 11 12 12 12 11 10 10 9 8 8 9 9 10 11 11 10 10 8 6 5 6 4 3 3 3
22 22 22 22 23 24 24 24 23 22 22 22 23 24 23 21 20 20 20 20 21 22 22 21 21 20 19 19 18 17 16 15 14 13 12 11 11 10 9 8 7 6 5 4 4 3 2 3 4 6 7 8 8 9 10 11 12 12 13 12 12 11 11 10 10 10 10 10 9 8 8 8 8 9 9 9 8 7 6 6 6 6 7 7 8
23 22 22 22 24 24 24 24 24 23 22 23 24 23 22 21 20 18 18 19 20 20 20 20 19 18 18 18 17 16 15 14 13 12 11 11 10 10 9 8 7 6 5 4 4 3 4 4 6 8 9 9 10 11 12 12 12 12 12 12 11 10 9 9 9 9 9 9 8 7 8 8 8 8 9 10 9 8 7 6 5 5 5 6 7
26 25 24 25 25 25 25 25 24 22 22 22 22 21 21 21 20 18 17 18 18 18 19 19 18 18 18 18 17 17 16 15 15 14 13 12 11 11 10 9 8 8 7 6 6 6 6 6 7 8 9 10 10 11 12 12 12 12 12 12 10 9 8 8 8 8 7 8 7 6 6 6 5 6 8 9 9 9 8 6 4 3 3 4 4
28 27 27 27 26 26 26 25 23 21 21 21 21 20 20 19 18 17 16 16 16 16 17 18 17 17 17 17 16 16 16 15 15 14 13 13 12 12 11 10 10 9 8 8 8 8 8 8 8 9 10 10 11 11 11 11 11 11 12 11 10 8 7 7 7 7 7 6 5 4 4 3 2 3 5 6 8 8 7 6 5 4 4 4 3
28 28 28 27 26 26 26 25 23 22 21 20 20 20 19 18 17 16 15 14 14 14 15 16 16 16 16 15 15 15 14 14 13 13 13 12 12 12 11 11 10 9 9 8 8 8 9 9 9 10 10 10 10 10 10 10 10 10 10 10 9 8 7 7 6 6 6 5 4 3 2 2 2 3 3 4 6 6 5 5 5 5 5 5 6
Wind_Direction
217 219 215 209 204 202 198 193 190 187 183 177 174 172 172 172 170 168 169 169 168 167 166 165 165 165 164 163 163 165 162 162 163 163 159 150 138 130 125 117 108 108 99 91 101 106 106 109 106 105 116 144 163 177 198 225 300 4 7 11 10 355 350 346 339 344 345 352 9 37 68 75 77 49 33 31 40 55 74 91 89 74 59 47 32
218 221 215 208 204 201 198 195 193 191 188 184 180 177 177 176 174 173 174 175 174 173 171 168 168 168 167 166 168 169 165 161 162 161 156 149 139 132 127 119 113 113 103 92 98 105 111 117 119 123 127 155 184 200 212 224 268 325 349 357 357 347 349 359 1 7 11 6 13 18 11 6 7 7 6 8 20 31 54 81 72 52 34 24 13
217 218 213 206 202 200 198 197 196 196 194 191 187 184 183 182 180 181 181 181 180 180 178 174 171 171 168 168 170 170 165 162 163 161 154 147 140 136 130 131 136 136 127 112 107 119 128 138 153 160 153 176 205 217 222 228 256 297 323 336 345 350 349 346 353 6 5 1 11 11 3 354 337 342 345 343 359 10 6 12 27 16 3 4 4
211 213 213 207 201 199 197 197 196 198 200 197 194 191 190 189 187 188 189 188 187 187 185 179 175 175 174 172 171 168 164 165 169 165 158 152 146 142 142 150 158 160 152 143 148 168 178 178 177 180 175 193 217 221 225 231 249 278 301 317 331 345 342 328 324 335 341 347 356 357 2 4 349 340 339 341 358 10 1 326 337 347 342 345 353
212 210 213 208 203 199 195 196 197 199 201 200 198 196 195 194 193 195 196 195 193 192 190 184 181 181 177 175 172 168 167 170 174 173 166 156 147 151 166 168 169 171 166 160 169 179 185 192 191 194 195 205 222 224 226 230 245 265 284 304 315 324 327 324 320 323 330 336 340 347 359 4 353 347 344 349 355 357 351 325 329 339 333 332 340
221 217 216 212 206 202 196 195 198 200 201 200 200 199 199 197 197 198 198 198 197 195 192 189 187 185 180 178 177 174 174 176 176 174 166 151 151 182 196 189 179 179 178 174 178 179 179 193 199 202 209 215 223 228 229 234 247 261 274 290 303 309 311 314 316 318 324 327 330 339 345 340 346 353 354 345 338 342 344 330 331 336 329 330 337
221 220 219 213 209 206 200 197 200 202 201 200 201 202 202 202 201 201 200 200 199 198 196 194 193 190 185 184 184 183 183 182 177 172 167 166 181 203 210 206 195 187 189 188 187 185 184 196 203 209 217 221 226 230 233 242 251 260 270 280 291 298 299 300 301 306 314 317 318 327 337 335 339 354 359 347 337 335 336 332 335 337 333 333 337
216 217 217 213 209 206 201 199 202 205 203 201 201 203 205 205 206 205 204 203 202 202 202 201 199 195 192 191 192 193 192 190 186 182 185 191 200 208 208 210 209 200 196 197 198 200 204 209 209 215 220 219 225 233 241 251 257 262 267 271 279 285 287 290 293 300 308 307 305 309 323 333 336 343 347 346 340 329 328 330 331 335 340 336 332
219 218 217 213 210 207 203 202 202 204 205 202 201 204 206 207 208 208 206 205 206 207 207 207 205 202 201 202 203 203 203 201 201 204 212 216 219 223 217 211 214 212 207 207 209 213 220 221 219 224 227 225 224 232 241 252 260 263 266 266 268 272 276 283 290 297 301 298 301 303 310 323 330 333 335 338 336 327 325 327 328 332 339 333 330
218 219 216 212 210 208 206 205 204 204 206 204 202 203 205 205 207 208 207 206 207 209 211 212 209 208 209 210 212 212 212 211 213 219 228 233 235 235 232 222 217 217 216 215 217 222 225 225 230 236 240 237 231 232 237 248 260 261 264 267 266 267 271 276 280 284 286 287 295 301 309 319 324 327 330 329 329 326 322 322 327 333 336 335 333
215 216 215 212 211 211 209 208 206 204 204 204 203 203 202 202 203 205 206 207 208 211 213 213 212 213 214 215 218 221 223 224 225 229 237 241 240 241 241 235 228 225 222 220 221 224 225 226 234 242 246 246 241 238 239 248 258 259 263 268 270 271 270 273 274 275 278 283 290 296 304 314 317 321 322 318 320 322 319 322 326 330 333 337 337
213 213 213 212 212 212 212 211 209 207 205 204 205 205 202 201 200 201 204 207 211 213 214 214 214 216 219 220 223 226 232 235 235 240 247 250 248 246 246 242 238 235 229 228 229 231 233 235 238 240 242 246 246 245 247 253 256 257 263 268 272 272 270 272 273 271 274 278 284 290 297 304 309 314 315 313 313 311 315 322 323 328 334 336 337
212 212 212 212 213 213 213 212 212 210 207 205 206 208 205 203 202 202 203 204 208 213 215 216 217 220 222 224 227 230 235 240 243 247 250 253 253 251 251 249 246 244 240 238 238 240 244 245 243 239 238 242 245 247 250 253 256 259 265 270 271 270 269 271 270 270 271 272 277 283 289 294 297 303 307 308 307 305 311 316 315 325 331 330 337
210 211 212 212 213 214 214 213 213 212 211 208 208 210 208 206 205 205 205 204 206 210 214 217 220 222 224 225 228 232 237 242 246 246 247 250 251 249 252 253 251 248 246 246 245 245 247 247 246 242 240 242 243 246 248 249 254 258 261 267 270 269 268 268 269 270 272 271 274 278 283 286 286 292 299 301 300 301 306 307 311 321 322 324 338
210 210 211 213 214 215 215 215 213 213 213 212 211 212 210 208 207 206 206 205 207 209 212 217 220 222 225 226 228 232 237 244 245 244 244 246 245 243 246 251 253 249 246 246 242 242 245 245 246 246 244 244 243 244 247 248 252 254 256 260 265 266 264 265 267 269 270 272 274 275 278 281 281 284 290 293 293 295 300 302 310 320 321 322 331
211 211 212 214 215 216 217 217 215 214 215 215 214 213 211 210 208 207 208 209 211 214 214 217 221 223 224 224 226 230 235 240 241 242 242 241 238 237 240 245 247 244 241 238 233 236 241 243 247 250 248 249 248 247 249 249 251 253 255 257 260 260 259 259 261 264 267 269 272 275 273 272 275 277 280 285 289 292 298 300 306 315 318 321 325
211 212 213 214 216 217 219 220 218 216 216 217 218 216 213 211 209 208 210 212 216 218 219 221 222 223 223 223 224 227 231 235 237 240 240 236 231 230 234 238 236 235 234 233 232 235 239 242 246 250 251 252 251 251 250 250 253 257 258 258 258 257 257 257 257 261 265 268 272 274 272 270 271 272 273 277 282 287 291 295 300 306 309 314 316
212 214 215 216 217 218 219 221 221 220 219 219 220 220 218 216 213 211 211 213 216 219 222 224 225 224 224 223 224 226 228 231 233 236 234 230 229 229 232 235 234 231 230 229 232 235 237 241 244 247 251 251 250 252 253 253 258 260 259 258 258 259 259 258 258 261 267 270 272 273 274 272 270 269 270 272 276 279 281 285 290 294 299 302 303
209 211 214 216 217 219 221 222 223 222 223 223 222 222 222 221 219 218 218 218 219 221 225 227 227 227 226 225 227 228 229 230 230 231 231 230 230 231 232 235 234 232 231 231 235 238 239 241 243 247 250 249 250 255 259 261 264 263 258 257 259 262 262 261 261 264 269 271 270 269 271 273 272 268 267 267 271 274 279 284 286 287 289 288 292
207 210 213 216 218 221 223 224 224 224 225 225 225 225 225 225 224 224 223 224 225 226 227 228 228 228 228 227 229 230 231 232 230 228 229 233 234 233 234 233 232 233 234 236 238 240 241 242 244 246 248 250 251 256 261 265 266 263 259 259 261 263 263 263 264 265 269 272 271 270 271 275 277 272 267 266 270 274 280 285 287 287 287 282 282
210 212 214 217 219 222 224 226 226 226 225 226 226 227 227 228 227 227 226 226 227 228 229 228 227 227 228 228 229 231 232 233 233 230 231 232 232 232 234 233 234 236 236 238 238 239 240 241 241 241 244 248 250 253 259 263 264 262 262 264 264 264 264 267 268 267 269 271 271 272 273 276 277 274 270 268 270 275 281 285 288 289 288 284 281
212 214 216 217 219 222 225 226 226 225 226 227 227 228 228 229 229 228 229 228 228 229 229 227 226 226 227 228 228 229 231 233 234 233 231 231 229 229 232 233 234 236 236 236 236 236 235 234 235 239 243 247 248 250 254 257 259 259 262 266 266 266 266 269 271 271 270 269 270 274 276 277 277 275 272 271 271 275 280 283 287 288 287 283 280
216 216 217 219 221 223 225 226 226 227 228 228 228 229 230 231 230 229 229 229 229 229 228 226 224 223 225 227 227 227 229 230 232 233 231 230 229 227 230 231 233 235 236 236 235 234 232 230 234 240 243 246 247 247 249 253 257 258 259 261 261 264 267 270 273 274 271 268 270 273 276 277 280 280 279 277 276 278 280 281 282 283 281 279 280
221 220 220 221 221 222 224 224 226 228 229 229 229 230 231 231 232 230 229 230 230 229 227 223 220 220 221 224 225 224 225 226 229 231 230 230 229 228 229 231 232 233 234 235 237 236 234 234 238 242 244 247 248 247 250 253 254 255 256 256 256 260 266 270 273 274 272 269 269 272 273 274 279 284 284 283 281 282 283 283 284 283 279 277 279
223 220 218 218 218 220 222 223 226 228 229 230 231 232 233 233 233 232 229 228 229 229 227 223 219 218 220 222 223 224 224 225 226 227 228 230 230 230 230 230 231 231 231 232 234 235 235 236 236 238 242 246 249 252 254 254 252 252 255 258 260 263 268 273 275 276 275 274 272 272 273 274 278 281 283 283 282 282 283 282 283 282 278 274 273
223 220 216 215 216 218 221 223 226 228 229 231 232 232 233 234 235 235 231 227 226 225 225 224 221 221 222 224 225 226 225 225 225 226 226 227 229 230 231 231 230 229 229 230 231 232 234 233 233 235 239 243 249 255 256 253 251 253 258 263 267 271 274 277 279 281 281 279 276 274 274 275 276 278 280 280 280 280 280 279 279 279 278 276 272
219 220 219 219 218 218 220 222 225 227 229 231 233 233 234 235 236 236 234 229 225 222 223 223 223 224 226 228 230 231 230 227 227 228 227 227 230 233 233 232 231 230 230 230 232 234 235 234 233 234 237 242 248 253 255 255 255 259 263 268 271 276 280 283 284 286 285 283 280 277 276 276 276 278 280 281 281 280 277 275 274 276 278 277 273
214 218 221 223 224 222 222 223 224 226 229 231 233 234 235 236 237 237 237 232 226 222 221 221 223 224 226 229 233 236 235 231 230 231 231 230 231 234 236 234 232 232 232 232 233 237 239 239 237 238 242 247 250 253 255 256 259 265 268 272 275 277 280 284 286 290 289 287 282 278 276 275 275 277 279 280 282 282 280 277 275 274 275 275 272
206 215 219 223 227 228 228 227 227 227 228 230 231 233 234 236 237 238 239 237 231 227 225 224 224 225 224 225 229 234 235 234 232 232 232 232 232 234 237 237 235 234 235 234 234 237 242 244 244 245 248 253 257 258 258 259 261 265 269 272 275 277 279 281 283 286 288 288 286 282 278 276 276 276 276 276 277 280 281 280 276 273 272 273 271
194 207 216 221 226 231 232 232 232 231 231 231 231 232 233 235 236 237 238 238 236 232 231 230 229 229 229 228 229 231 231 230 230 230 231 232 232 234 237 238 238 237 236 234 234 237 242 246 249 252 257 263 267 266 263 260 260 262 265 269 272 275 276 276 278 280 282 286 288 288 284 281 279 277 275 274 274 275 276 276 274 272 270 270 270
198 206 213 220 226 232 235 237 237 236 235 234 234 234 234 235 236 237 238 240 239 237 238 238 238 237 237 236 234 234 233 230 228 228 230 231 232 234 236 237 237 236 235 234 234 237 240 243 248 254 260 266 269 269 269 267 264 263 265 268 272 275 274 273 273 275 277 281 285 287 288 286 282 279 278 277 273 270 270 271 270 268 268 267 267
200 209 215 221 228 234 239 241 242 241 239 238 237 237 237 237 238 238 239 241 240 239 240 241 241 242 243 243 242 237 233 231 229 229 229 229 229 229 230 230 231 232 233 234 237 241 242 243 247 253 258 263 267 271 275 276 275 274 272 273 275 276 276 273 272 272 274 276 279 281 284 285 281 279 278 276 272 270 271 272 272 273 273 271 269
177 191 207 221 231 240 243 245 248 247 244 242 240 238 237 237 238 238 239 240 238 237 239 240 241 244 246 248 250 246 239 232 228 231 234 229 224 222 223 224 228 231 233 236 241 244 245 246 249 254 259 263 266 270 273 275 278 279 279 280 280 279 277 275 273 272 272 273 275 277 279 280 279 277 274 273 273 274 271 266 269 276 278 278 276
124 122 126 169 229 249 253 254 253 250 247 243 239 237 235 234 236 237 238 239 238 237 237 239 243 246 246 246 247 247 246 236 226 228 238 235 226 221 223 226 230 235 238 242 246 248 250 252 255 258 261 264 266 268 270 272 275 277 278 279 279 280 279 278 276 274 273 273 273 274 274 275 276 274 272 274 278 280 275 267 264 267 271 275 278
117 112 109 109 120 185 243 253 255 255 253 247 241 239 238 237 239 239 239 239 239 236 235 236 238 241 244 245 240 239 245 244 231 227 236 242 236 229 228 230 233 240 246 249 251 254 256 257 258 262 266 267 267 268 270 272 274 275 276 276 276 276 276 276 276 275 274 273 273 273 274 274 273 271 271 276 280 281 279 273 267 264 265 268 272
125 111 100 100 101 106 139 184 214 231 243 248 247 247 248 248 247 244 241 240 238 235 233 232 232 233 237 240 234 232 242 248 238 229 233 243 249 245 240 239 242 249 253 253 257 262 264 263 261 263 265 267 268 269 271 272 273 274 275 275 275 274 274 273 273 272 272 272 272 272 273 273 272 270 270 274 278 281 280 277 273 269 267 267 268
124 117 108 108 105 104 127 139 159 191 214 227 235 241 245 249 250 246 242 239 237 233 230 228 227 227 230 232 228 228 238 245 241 236 236 241 246 248 251 251 251 253 254 256 262 267 267 265 262 261 263 266 269 272 273 274 274 273 274 274 274 274 274 274 273 272 272 273 273 274 274 273 273 272 271 272 274 276 277 276 276 273 269 267 268
109 124 135 141 137 137 123 109 111 129 171 215 228 234 241 243 242 237 230 227 228 228 230 229 225 220 221 224 226 227 231 236 239 235 230 233 240 247 256 259 254 252 254 257 262 265 265 265 264 264 264 267 270 273 273 273 273 272 272 272 273 273 273 272 272 272 272 273 274 274 273 272 272 272 272 272 271 271 271 271 271 272 271 268 267
95 109 122 124 116 117 117 103 94 90 85 102 210 225 233 227 219 218 213 206 206 207 208 209 207 205 206 211 215 215 214 220 229 229 223 228 238 244 252 257 255 255 256 257 260 264 266 268 268 267 268 270 272 274 275 276 276 276 275 275 275 275 274 274 274 274 274 275 275 275 275 274 273 272 272 272 271 270 268 267 265 264 264 264 263
95 97 98 97 95 99 105 99 90 85 80 76 105 167 191 189 190 198 190 167 162 163 162 164 167 170 172 167 161 165 172 181 191 193 193 207 226 238 246 248 243 245 251 256 261 265 266 268 269 270 272 274 277 280 283 285 287 287 287 285 283 283 283 283 283 282 282 282 282 281 281 281 280 279 276 273 272 270 267 266 264 259 257 257 258
89 87 88 94 91 84 82 83 82 81 80 81 98 114 118 124 136 141 127 116 121 129 131 135 138 137 136 135 134 137 137 134 131 130 136 147 164 187 203 210 215 229 244 255 262 264 261 261 265 267 270 276 283 292 299 305 308 307 308 306 302 300 300 299 298 298 296 294 293 291 291 291 292 290 284 275 270 267 265 265 263 259 255 253 252
92 91 94 99 94 83 76 76 80 84 88 95 105 109 109 110 109 103 97 94 98 100 100 104 109 110 110 110 112 115 115 116 118 120 124 128 131 137 142 146 158 184 208 217 219 219 194 167 177 213 258 315 334 354 2 358 352 346 342 342 339 337 336 331 327 323 319 318 317 312 306 304 303 304 304 294 278 268 265 264 261 257 253 247 241
100 98 97 98 96 90 85 81 80 85 91 96 102 104 105 103 95 88 85 86 87 88 89 91 92 94 97 99 100 103 104 105 105 106 110 116 121 125 124 118 115 113 110 109 109 103 98 97 94 88 78 64 49 40 29 12 3 357 353 353 352 351 352 350 345 340 335 333 331 321 313 314 315 320 331 329 308 283 272 268 258 247 240 234 231
102 100 100 100 97 94 91 87 83 83 87 92 97 99 97 92 87 84 84 85 86 88 89 88 87 87 89 90 91 91 90 89 90 93 96 98 100 103 108 109 108 104 101 100 96 87 84 82 78 75 68 55 40 28 17 7 1 357 352 350 348 347 348 348 348 347 340 329 321 319 321 327 332 339 348 350 342 318 290 275 257 237 225 220 221
102 103 101 101 100 98 96 93 90 88 89 91 92 92 89 87 85 85 85 84 85 86 86 85 83 80 79 79 79 79 77 77 79 82 84 87 88 90 95 100 99 96 95 95 93 89 86 73 60 55 45 31 19 8 1 357 352 348 346 343 340 338 337 338 343 348 346 334 323 327 336 342 348 355 359 357 353 346 319 286 264 248 237 228 222
101 101 100 99 99 98 97 96 95 92 90 88 85 83 83 83 83 83 82 81 81 81 80 79 77 75 74 74 75 75 74 74 74 74 75 77 80 82 83 83 82 81 80 77 77 80 76 32 7 7 4 359 352 346 344 340 336 333 331 329 326 325 325 326 330 339 347 346 337 334 342 356 7 14 16 9 1 359 350 321 299 306 3 41 47
99 98 98 98 96 95 95 94 92 91 88 85 82 80 80 81 82 83 83 81 79 78 77 76 76 75 75 74 74 73 73 72 70 69 68 69 72 73 73 70 66 65 63 61 57 44 10 344 339 339 340 342 340 337 334 332 329 327 325 323 323 324 324 321 320 327 338 346 344 338 342 359 19 32 33 27 21 18 17 12 13 31 55 69 67
101 99 98 98 97 96 95 92 90 89 86 83 82 81 80 81 81 83 83 81 78 76 75 75 76 75 73 72 70 69 68 66 65 64 61 60 59 57 57 56 53 48 42 33 21 4 346 336 330 329 333 336 334 331 330 329 329 329 328 328 332 335 332 328 325 325 332 341 345 344 348 2 22 32 30 28 29 28 26 26 33 50 76 91 92
101 100 98 98 97 96 95 93 91 89 86 83 81 81 80 80 81 81 82 80 77 76 75 74 73 71 68 65 64 63 61 60 59 58 56 53 49 44 40 37 34 32 27 20 13 3 352 343 336 333 334 335 334 334 335 336 336 337 336 337 342 347 344 338 334 331 334 342 347 351 0 12 23 25 25 33 39 38 35 37 42 61 88 100 108
100 99 97 95 95 95 93 92 90 87 84 82 81 81 80 80 80 80 78 76 75 74 71 69 66 63 60 57 56 54 52 51 50 49 47 45 42 38 35 31 28 25 22 19 17 12 6 359 352 348 345 344 344 344 343 344 344 342 340 342 349 357 359 353 347 342 343 350 356 1 7 12 15 22 35 46 46 39 33 35 45 60 73 81 93
98 98 97 95 94 93 92 91 90 88 85 83 81 80 79 77 76 75 72 71 68 66 64 61 58 56 54 53 51 50 47 45 43 42 40 39 37 34 32 29 27 24 19 16 13 8 3 358 354 351 349 347 347 346 346 349 349 348 347 348 353 2 10 14 13 8 6 14 23 27 48 99 87 56 40 31 24 20 21 33 55 78 89 97 108